www.pogodaiklimat.ru

Погода и климат >> Архив погоды >> Россия >> Кировская область >> Киров


АРХИВ ПОГОДЫ в Кирове

Время (UTC), дата Ветер
(напр.,м/с)
 
Видим.   Явления Облачность Т
(С)
Тd
(С)
f
(%)
Тe
(С)
Тes
(С)
Комфортность P
(гПа)
Po
(гПа)
Тmin
(С)
Tmax
(С)
R
(мм)
R24
(мм)
S
(см)
03 17.10 З 3-7
{8}
20 км 10/8 600 м
[Sc Ac und]
+8.4 +5.8 84 +6 +6 тепло 1010.1 991.0 +7.9
06 17.10 С 4-12
{12}
20 км в посл. час ливневой дождь 8/8 300 м
[Cb calv]
+8.8 +2.9 66 +6 +6 тепло 1013.9 994.7
09 17.10 СЗ 3-8
{12}
20 км 8/8 600 м
[Sc]
+8.2 +0.4 58 +6 +6 тепло 1018.8 999.4
12 17.10 ЮЗ 2-5
{9}
20 км 6/6 600 м
[Sc]
+7.6 0.0 59 +6 +6 тепло 1021.5 1002.1
15 17.10 СЗ 2-2
{5}
20 км ясно +4.0 0.0 75 +1 +1 по сезону 1023.6 1003.8 +9.5 0.0
18 17.10 З 1-2
{3}
20 км 3/0
[Cc]
+1.9 -0.9 82 0 0 по сезону 1024.4 1004.5
21 17.10 З 1-2
{3}
20 км 1/0
[Cc]
+1.7 -0.2 87 -0 -0 по сезону 1024.2 1004.3
00 18.10 ЮЗ 1-3
{4}
20 км ясно -1.1 -2.0 94 -3 -3 по сезону 1024.4 1004.3
03 18.10 ЮЗ 1-2
{3}
20 км 4/3 600 м
[Sc Cs]
-1.1 -1.7 96 -3 -3 по сезону 1023.6 1003.5 -1.2
06 18.10 ЮЗ 2-3
{4}
20 км 8/0
[Ac trans Cc]
+3.7 +1.4 85 +1 +2 по сезону 1022.5 1002.7 -1.7
09 18.10 ЮЗ 3-6
{6}
20 км 10/8 600 м
[Cb calv Ac trans Cc]
+9.0 +1.3 58 +7 +7 тепло 1019.9 1000.6
12 18.10 Ю 2-6
{7}
20 км слабый дождь {ливн. осадки} 10/0
[Ac As]
+6.6 +5.0 90 +4 +4 по сезону 1017.3 997.9
15 18.10 ЮЗ 4-8
{8}
20 км 8/0
[Ci fib]
+6.9 +4.6 85 +3 +3 по сезону 1014.3 995.0 +9.0 0.4
18 18.10 З 4-8
{9}
20 км 6/0
[Ci fib]
+7.8 +6.2 90 +4 +4 тепло 1012.9 993.6
21 18.10 З 3-6
{8}
20 км 6/0
[Ci fib]
+7.4 +6.2 92 +4 +4 тепло 1012.4 993.1
00 19.10 З 1-3
{6}
4000 м дымка ясно +5.7 +5.2 97 +4 +4 тепло 1011.7 992.4
03 19.10 ЮЗ 2-3
{4}
500 м туман ?/? +6.0 +5.8 99 +3 +3 тепло 1010.6 991.3 +4.6
06 19.10 ЮЗ 2-5
{5}
2000 м в посл. час туман 10/8 200 м
[St As trans]
+6.8 +6.6 99 +4 +4 тепло 1008.8 989.6
09 19.10 ЮЗ 4-8
{9}
20 км 1/0
[Ci fib]
+11.7 +7.1 73 +10 +11 тепло 1006.8 987.9
12 19.10 З 3-6
{9}
20 км в посл. час ливневой дождь 10/4 600 м
[Cb cap Ac As]
+12.8 +7.7 71 +12 +12 тепло 1007.0 988.2
15 19.10 З 3-5
{8}
20 км {ливн. осадки} 3/0
[Ac trans]
+9.4 +6.1 80 +7 +7 тепло 1007.9 988.8 +13.1 0.0
18 19.10 З 2-4
{6}
20 км {ливн. осадки} 3/0
[Ac trans Ci fib]
+8.0 +6.1 88 +6 +6 тепло 1008.9 989.7
21 19.10 З 2-4
{5}
20 км 1/0
[Ac trans]
+6.4 +5.0 91 +4 +4 тепло 1009.4 990.1
00 20.10 З 2-4
{5}
20 км 8/5 600 м
[Sc Ac trans]
+5.2 +4.5 95 +2 +2 по сезону 1009.2 989.8
03 20.10 З 2-4
{5}
20 км 3/0
[Ac lent]
+4.2 +3.0 92 +1 +1 по сезону 1009.7 990.2 +4.0 0.0
06 20.10 СЗ 1-3
{4}
20 км 9/9 600 м
[Cb calv]
+4.8 +2.6 86 +3 +4 тепло 1010.4 991.0 +3.4
09 20.10 СЗ 1-3
{5}
10 км слабый ливневой дождь 9/9 300 м
[Cb cap]
+5.4 +3.2 86 +4 +4 тепло 1011.3 991.9
12 20.10 СЗ 2-5
{6}
20 км {ливн. осадки} 8/6 300 м
[Cb calv Ac trans]
+6.2 +2.8 79 +4 +4 по сезону 1012.3 992.9
15 20.10 СЗ 1-3
{5}
20 км {ливн. осадки} 8/5 300 м
[Cb calv Ac As]
+4.8 +2.6 86 +3 +3 по сезону 1014.3 994.8 +6.4 0.8
18 20.10 СЗ 1-2
{5}
20 км в посл. час ливневой дождь 6/3 300 м
[Cb calv Ac trans]
+3.6 +2.1 90 +2 +2 по сезону 1016.1 996.5
21 20.10 СЗ 1-4
{4}
20 км 8/4 300 м
[Cb calv Ac trans]
+3.0 +1.2 88 +1 +1 по сезону 1017.9 998.2
00 21.10 СЗ 1-4
{5}
20 км 6/3 300 м
[Cb calv Ac As]
+0.6 -1.1 88 -1 -1 по сезону 1020.1 1000.2
03 21.10 СЗ 1-2
{5}
20 км 10/10 300 м
[Cb calv]
+0.2 -1.5 88 -2 -2 по сезону 1021.6 1001.7 +0.1 0.3
06 21.10 СЗ 1-3
{3}
10 км слабый ливневой снег 10/10 300 м
[Cb cap]
+0.3 -0.8 92 -2 -2 по сезону 1023.2 1003.2 -0.4
09 21.10 СЗ 2-4
{4}
20 км {ливн. осадки} 10/10 300 м
[Cb calv]
+1.4 -1.1 83 -2 -2 по сезону 1024.3 1004.4
12 21.10 З 2-4
{5}
20 км {ливн. осадки} 10/10 600 м
[Cb calv]
+1.8 -0.7 83 -1 -1 по сезону 1025.2 1005.3
15 21.10 ЮЗ 1-3
{4}
20 км 8/6 600 м
[Cb calv Ac trans]
+1.3 -0.7 87 -1 -1 по сезону 1025.3 1005.4 +2.1 0.0
18 21.10 ЮЗ 1-3
{4}
20 км 10/10 600 м
[Cb calv]
+1.0 -0.7 88 -1 -1 по сезону 1025.9 1006.0
21 21.10 З 2-4
{4}
20 км 10/8 600 м
[Cb calv Ac und]
+0.7 -0.4 92 -3 -3 по сезону 1026.0 1006.0
00 22.10 ЮЗ 2-4
{5}
10 км слабый ливневой снег 10/10 600 м
[Cb cap]
-0.5 -1.1 96 -4 -4 по сезону 1025.4 1005.3
03 22.10 З 2-4
{7}
20 км {ливн. осадки} 10/10 600 м
[Cb calv]
-0.4 -1.3 94 -4 -4 по сезону 1024.5 1004.4 -0.8 0.3
06 22.10 ЮЗ 2-5
{5}
20 км в посл. час ливневой снег 10/8 600 м
[Cb calv Ac As]
+0.7 -1.0 88 -3 -3 по сезону 1023.3 1003.3
09 22.10 ЮЗ 3-6
{8}
20 км 10/8 600 м
[Sc Ac As]
+3.5 -0.3 76 -0 -0 по сезону 1020.4 1000.7
12 22.10 ЮЗ 4-8
{9}
20 км 10/10 600 м
[Sc]
+4.9 +0.2 72 +1 +1 по сезону 1016.8 997.3
15 22.10 ЮЗ 4-9
{11}
20 км 10/10 600 м
[Sc]
+5.0 -1.2 64 +1 +1 по сезону 1013.9 994.4 +5.1 0.0
18 22.10 ЮЗ 4-12
{12}
20 км 10/0
[Cs]
+4.6 -0.8 68 +1 +1 по сезону 1011.8 992.3
21 22.10 ЮЗ 4-8
{12}
20 км 10/0
[Cc]
+3.6 -0.5 75 -1 -1 по сезону 1009.6 990.1
00 23.10 ЮЗ 3-6
{10}
20 км 3/0
[Cc]
+3.0 -0.5 78 -1 -1 по сезону 1008.3 988.8
03 23.10 ЮЗ 3-6
{8}
20 км ясно +1.7 +0.1 89 -3 -3 по сезону 1006.8 987.3 +1.6
06 23.10 ЮЗ 3-7
{9}
20 км 6/6 300 м
[Sc]
+3.4 +0.8 83 -1 -0 по сезону 1005.6 986.2 +1.5
09 23.10 ЮЗ 4-10
{10}
20 км 9/1 600 м
[Cu hum Ac trans Cc]
+8.0 +2.3 67 +5 +6 тепло 1002.9 983.8
12 23.10 ЮЗ 4-8
{10}
20 км 10/6 600 м
[Cb cap As op]
+7.0 +3.2 77 +4 +4 тепло 1001.2 982.2
15 23.10 ЮЗ 3-6
{9}
10 км слабый дождь 10/0
[As op]
+5.0 +3.6 91 +1 +1 по сезону 1000.7 981.5 +8.2 0.1
18 23.10 ЮЗ 1-3
{7}
10 км слабый дождь 10/6 300 м
[Frnb As trans]
+4.6 +3.9 95 +3 +3 тепло 999.6 980.4
21 23.10 ЮЗ 1-2
{3}
20 км в посл. час дождь 10/6 300 м
[Frnb Ac As]
+4.3 +3.8 97 +3 +3 тепло 999.5 980.3
00 24.10 ЮЗ 1-1
{4}
20 км {дождь} 10/10 300 м
[St]
+3.6 +3.4 99 +2 +2 тепло 998.6 979.3

 

Местоположение метеостанции Киров (Кировская область, Россия): широта 58.60 долгота 49.63 высота над уровнем моря 158 м.

В архиве по умолчанию представлена погода в Кирове за последнюю неделю. Архивные данные за месяц целиком и за предыдущие месяцы, начиная с января 2011 года, Вы можете получить, выбрав интересующий диапазон дат из раскрывающегося списка и нажав кнопку "Ввод!".


*Определитесь, кто Вы:
робот инопланетянин человек

Внимание! Время в таблицах - всемирное. Для получения местного времени необходимо прибавить поправку, которая в Кирове равна 3 ч.

Смотрите также архив погоды в соседних городах и на ближайших метеорологических станциях:

Погода в Кумене (Кировская область, Россия) (58 км)
Погода в Белой Холунице (Кировская область, Россия) (75 км)
Погода в Котельниче (Кировская область, Россия) (82 км)
Погода в Даровском (Кировская область, Россия) (98 км)
Погода в Нагорске (Кировская область, Россия) (106 км)
Погода в Фаленках (Кировская область, Россия) (116 км)
Погода в Нолинске (Кировская область, Россия) (118 км)
Погода в Унях (Кировская область, Россия) (145 км)
Погода в Шабалино (Кировская область, Россия) (150 км)
Погода в Опарино (Кировская область, Россия) (159 км)

Пояснения к столбцам:

Ветер - указаны скорость ветра в м/с - средняя за 10 мин, порывы в срок и между сроками (в фигурных скобках) и направление, откуда дует ветер: С - северный, СВ - северо-восточный, В - восточный, ЮВ - юго-восточный, Ю - южный, ЮЗ - юго-западный, З - западный, СЗ - северо-западный.
Видимость - горизонтальная дальность видимости в метрах или километрах. При видимости от 1 до 10 км при отсутствии осадков обычно наблюдается дымка, при ухудшении видимости до 1 км и менее - туман. В сухую погоду видимость может ухудшаться дымом, пылью или мглою.
Явления - указаны атмосферные явления, наблюдавшиеся в срок или в последний час перед сроком; фигурными скобками обозначены явления, наблюдавшиеся между сроками (за 1-3 часа до срока); квадратными скобками обозначены град или гололедные отложения с указанием их диаметра в мм.
Облачность - указаны через наклонную черту общая и нижняя облачность в баллах и высота нижней границы облаков в метрах; квадратными скобками обозначены формы облаков: Ci - перистые, Cs - перисто-слоистые, Cc - перисто-кучевые, Ac - высококучевые, As - высокослоистые, Sc - слоисто-кучевые, Ns - слоисто-дождевые, Cu - кучевые, Cb - кучево-дождевые. Подробнее классификацию облаков см. в Атласе облаков (PDF).
T - Температура воздуха - температура, измеренная на высоте 2 м над землей.
Td - Температура точки росы - температура, при понижении до которой содержащийся в воздухе водяной пар достигнет насыщения.
f - Относительная влажность воздуха - влажноcть воздуха, измеренная на высоте 2 м над землей.
Te - Эффективная температура - температура, которую ощущает одетый по сезону человек в тени. Характеристика душности погоды. При расчете учитывается влияние влажности воздуха и скорости ветра на теплоощущения человека.
Tes - Эффективная температура на солнце - температура, которую ощущает человек, с поправкой на солнечный нагрев. Характеристика знойности погоды. Зависит от высоты солнца над горизонтом, облачности и скорости ветра. Ночью, в пасмурную погоду, а также при ветре 12 м/с и более поправка равна нулю.
P - Атмосферное давление - приведенное к уровню моря атмосферное давление.
Po - Атмосферное давление - измеренное на уровне метеостанции атмосферное давление.
Tmin - Минимальная температура - минимум температуры воздуха на высоте 2 м над землей.
Tmax - Максимальная температура - максимум температуры воздуха на высоте 2 м над землей.
R - Количество осадков - Количество выпавших осадков за период времени, мм. При наведении курсора мыши на число - период времени, за который выпало указанное количество осадков.
R24 - Количество осадков - Количество выпавших осадков за 24 часа, мм.
S - Снежный покров - Высота снежного покрова, см. При наведении курсора мыши на число - состояние снежного покрова и степень покрытия местности в баллах.